Livermore, CA

10:43 AM PDT on July 20, 2017 (GMT -0700)
Livermore Municipal

Weather History for KLVK - March, 2013

Change the Weather History Date:

Tuesday, March 19, 2013

  Actual Average Record
Temperature  
Mean Temperature 58 °F 54 °F  
Max Temperature 72 °F 65 °F 82 °F (2015)
Min Temperature 44 °F 43 °F 32 °F (1963)
Degree Days  
Heating Degree Days 7 11  
Month to date heating degree days 186 223  
Since 1 July heating degree days 2126 2230  
Cooling Degree Days 0 0  
Month to date cooling degree days 0 0  
Year to date cooling degree days 0 0  
Growing Degree Days 8 (Base 50)    
Moisture  
Dew Point 44 °F    
Average Humidity 62    
Maximum Humidity 86    
Minimum Humidity 37    
Precipitation  
Precipitation 0.09 in 0.05 in 0.52 in (1952)
Month to date precipitation 0.25 1.47  
Year to date precipitation 1.37 7.51  
Since 1 July precipitation 9.66  
Sea Level Pressure  
Sea Level Pressure 30.10 in    
Wind  
Wind Speed 4 mph (WNW)    
Max Wind Speed 18 mph    
Max Gust Speed 22 mph    
Visibility 10 miles    
Events Rain    
T = Trace of Precipitation, MM = Missing Value Source: NWS Daily Summary

Daily Weather History Graph

Daily Weather History Graph

Search for Another Location

Airport or City:

Trip Planner

Search our weather history database for the weather conditions in past years. The results will help you decide how hot, cold, wet, or windy it might be!

Date:

Astronomy

Mar. 19, 2013 Rise Set
Actual Time 7:11 AM PDT 7:18 PM PDT
Civil Twilight 6:45 AM PDT 7:44 PM PDT
Nautical Twilight 6:15 AM PDT 8:15 PM PDT
Astronomical Twilight 5:44 AM PDT 8:46 PM PDT
Moon 12:12 PM PDT (3/19) 2:03 AM PDT (3/19)
Length of Visible Light 12h 59m
Length of Day
12h 06m
Waxing Crescent, 51% of the Moon is Illuminated
Mar 19
Waxing Crescent
Mar 27
Full
Apr 2
Last Quarter
Apr 10
New
Apr 18
First Quarter

Hourly Weather History & Observations

Time (PDT) Temp. Windchill Dew Point Humidity Pressure Visibility Wind Dir Wind Speed Gust Speed Precip Events Conditions
12:53 AM 48.9 °F - 44.1 °F 83% 30.09 in 10.0 mi Calm Calm - N/A   Clear
1:53 AM 48.9 °F - 44.1 °F 83% 30.09 in 10.0 mi Calm Calm - N/A   Scattered Clouds
2:53 AM 50.0 °F - 44.1 °F 80% 30.09 in 10.0 mi Calm Calm - N/A   Mostly Cloudy
3:53 AM 48.9 °F - 44.1 °F 83% 30.08 in 10.0 mi Calm Calm - N/A   Clear
4:53 AM 48.9 °F - 43.0 °F 80% 30.06 in 10.0 mi NE 3.5 mph - N/A   Clear
5:53 AM 46.9 °F - 43.0 °F 86% 30.08 in 10.0 mi Calm Calm - N/A   Clear
6:53 AM 46.0 °F 44.8 °F 42.1 °F 86% 30.08 in 10.0 mi East 3.5 mph - N/A   Clear
7:53 AM 46.9 °F - 42.1 °F 83% 30.10 in 10.0 mi Calm Calm - N/A   Clear
8:53 AM 50.0 °F - 44.1 °F 80% 30.11 in 10.0 mi East 3.5 mph - N/A   Partly Cloudy
9:53 AM 55.0 °F - 43.0 °F 64% 30.10 in 10.0 mi Calm Calm - N/A   Overcast
10:53 AM 60.1 °F - 42.1 °F 51% 30.10 in 10.0 mi Calm Calm - N/A   Clear
11:53 AM 64.0 °F - 44.1 °F 48% 30.10 in 10.0 mi SSW 4.6 mph - N/A   Clear
12:53 PM 66.9 °F - 44.1 °F 44% 30.09 in 10.0 mi Calm Calm - N/A   Overcast
1:53 PM 71.1 °F - 45.0 °F 39% 30.07 in 10.0 mi Variable 3.5 mph - N/A   Mostly Cloudy
2:53 PM 70.0 °F - 43.0 °F 38% 30.07 in 9.0 mi West 15.0 mph - N/A   Clear
3:53 PM 66.0 °F - 44.1 °F 45% 30.07 in 10.0 mi West 11.5 mph - N/A   Overcast
4:53 PM 63.0 °F - 43.0 °F 48% 30.09 in 10.0 mi West 15.0 mph - N/A   Overcast
5:53 PM 61.0 °F - 41.0 °F 48% 30.12 in 10.0 mi WSW 13.8 mph - 0.00 in   Overcast
6:53 PM 57.0 °F - 44.1 °F 62% 30.13 in 10.0 mi West 10.4 mph - 0.00 in Rain Light Rain
7:53 PM 53.1 °F - 41.0 °F 64% 30.13 in 10.0 mi NW 6.9 mph - 0.02 in Rain Light Rain
8:53 PM 50.0 °F - 44.1 °F 80% 30.12 in 9.0 mi Calm Calm - 0.04 in Rain Light Rain
9:53 PM 51.1 °F - 45.0 °F 80% 30.11 in 10.0 mi South 4.6 mph - 0.00 in   Overcast
10:53 PM 50.0 °F - 46.0 °F 86% 30.11 in 10.0 mi Calm Calm - 0.00 in Rain Light Rain
11:53 PM 52.0 °F - 48.0 °F 86% 30.10 in 10.0 mi ENE 5.8 mph - 0.01 in   Overcast